Station: Macquarie Island  

  Atmospheric Gas Attenuation - ITU Rec 676-11   ----------------- dB/100km -----------------
Date Time Temp RH % AH g/m3 Dew Point Wind Direction Speed kph Gust kph Barometer mB Rainfall Since 9am 24GHz 47GHz 76GHz 122GHz 134GHz 241GHz
02/09 20:40 5.1 94 6.43 4.2 43 48 977.5 2.4 15.3 23.4 33.5 88.2 76.7 262.0
02/09 20:30 5.2 93 6.41 4.2 43 48 977.6 2.4 15.3 23.4 33.4 87.8 76.4 260.7
02/09 20:20 5.1 92 6.3 3.9 39 44 977.7 2.4 15.0 23.2 33.0 86.8 75.0 256.0
02/09 20:10 5.1 92 6.3 3.9 37 43 977.8 2.4 15.0 23.2 33.0 86.8 75.0 256.0
02/09 20:00 5.1 92 6.3 3.9 37 41 977.8 2.4 15.0 23.2 33.0 86.8 75.0 256.0
02/09 19:50 5 92 6.26 3.8 35 39 977.8 2.4 14.9 23.2 32.9 86.5 74.6 254.4
02/09 19:40 5 93 6.32 4 35 39 977.9 2.4 15.1 23.3 33.1 87.1 75.4 257.3
02/09 19:30 4.9 93 6.28 3.9 33 37 977.8 2.4 15.0 23.3 33.0 86.8 75.0 255.7
02/09 19:20 4.8 93 6.24 3.8 32 37 977.8 2.4 14.9 23.2 32.9 86.5 74.5 254.2
02/09 19:10 4.9 92 6.21 3.7 30 35 977.8 2.4 14.8 23.2 32.7 86.0 74.0 252.4
02/09 19:00 4.9 92 6.21 3.7 30 35 977.9 2.4 14.8 23.2 32.7 86.1 74.0 252.5
02/09 18:50 5 93 6.32 4 32 39 977.9 2.4 15.1 23.3 33.1 87.1 75.4 257.3
02/09 18:40 4.9 93 6.28 3.9 32 39 977.9 2.4 15.0 23.3 33.0 86.8 75.0 255.7
02/09 18:30 4.9 92 6.21 3.7 32 39 977.9 2.4 14.8 23.2 32.7 86.1 74.0 252.5
02/09 18:20 5 93 6.32 4 30 35 977.9 2.4 15.1 23.3 33.1 87.1 75.4 257.3
02/09 18:10 5 93 6.32 4 30 39 977.9 2.4 15.1 23.3 33.1 87.1 75.4 257.3
02/09 18:00 5 93 6.32 4 28 35 977.8 2.4 15.1 23.3 33.1 87.1 75.4 257.2
02/09 17:50 5 94 6.39 4.1 30 35 977.8 2.4 15.2 23.4 33.4 87.9 76.3 260.5
02/09 17:40 4.9 94 6.35 4 35 41 977.8 2.4 15.1 23.4 33.3 87.6 75.9 259.0
02/09 17:30 5 94 6.39 4.1 35 41 977.7 2.4 15.2 23.4 33.4 87.9 76.3 260.5
02/09 17:20 5.1 94 6.43 4.2 37 43 977.5 2.4 15.3 23.4 33.5 88.2 76.7 262.0
02/09 17:10 5.1 94 6.43 4.2 37 43 977.4 2.4 15.3 23.4 33.5 88.1 76.7 261.9
02/09 17:00 5.2 94 6.48 4.3 39 44 977.3 2.4 15.4 23.5 33.7 88.6 77.3 263.9
02/09 16:50 5.2 94 6.48 4.3 39 44 977.2 2.4 15.4 23.5 33.7 88.6 77.3 263.9
02/09 16:40 5.2 94 6.48 4.3 39 44 977.1 2.4 15.4 23.5 33.7 88.5 77.3 263.9
02/09 16:30 5.2 94 6.48 4.3 41 46 977.1 2.4 15.4 23.5 33.7 88.5 77.3 263.9
02/09 16:20 5.1 94 6.43 4.2 39 44 977 2.4 15.3 23.4 33.5 88.1 76.7 261.9
02/09 16:07 5.2 94 6.48 4.3 37 41 977.1 2.4 15.4 23.5 33.7 88.5 77.3 263.9
02/09 16:00 5.2 94 6.48 4.3 37 43 977 2.4 15.4 23.5 33.7 88.5 77.3 263.8
02/09 15:50 5.3 94 6.52 4.4 39 46 977 2.4 15.5 23.5 33.8 88.9 77.7 265.4
02/09 15:40 5.2 95 6.55 4.5 41 46 976.8 2.4 15.6 23.6 33.9 89.3 78.2 267.1
02/09 15:30 5.2 95 6.55 4.5 43 48 976.7 2.4 15.6 23.6 33.9 89.3 78.2 267.1
02/09 15:20 5.2 95 6.55 4.5 46 54 976.8 2.4 15.6 23.6 33.9 89.3 78.2 267.1
02/09 15:10 5.1 95 6.5 4.4 50 61 976.8 2.4 15.5 23.5 33.8 88.8 77.6 265.1
02/09 15:00 5 95 6.46 4.3 50 59 976.9 2.4 15.4 23.5 33.7 88.5 77.2 263.6
02/09 14:50 4.9 95 6.42 4.2 46 57 977 2.2 15.3 23.5 33.5 88.2 76.8 262.1
02/09 14:40 4.7 95 6.33 4 41 48 977.2 2.2 15.1 23.4 33.3 87.5 75.8 258.6
02/09 14:30 4.8 95 6.38 4.1 37 41 977.5 2 15.2 23.4 33.4 88.0 76.4 260.6
02/09 14:20 4.8 94 6.31 3.9 37 44 977.7 1.8 15.1 23.3 33.2 87.2 75.5 257.4
02/09 14:07 4.8 93 6.24 3.8 37 41 978.1 1.4 14.9 23.2 32.9 86.5 74.6 254.2
02/09 14:00 4.8 92 6.17 3.6 43 56 978.2 1.2 14.7 23.1 32.6 85.8 73.6 251.0
02/09 13:50 4.9 92 6.21 3.7 50 56 978.2 0.8 14.8 23.2 32.7 86.1 74.1 252.5
02/09 13:40 5 91 6.19 3.7 39 48 978.5 0.6 14.8 23.1 32.6 85.8 73.7 251.4
02/09 13:30 4.9 91 6.15 3.6 43 50 978.8 0.6 14.7 23.1 32.5 85.5 73.3 249.9
02/09 13:20 5 91 6.19 3.7 43 48 979 0.4 14.8 23.1 32.7 85.8 73.8 251.5
02/09 13:06 5.1 90 6.16 3.6 46 54 979.1 0.2 14.7 23.1 32.5 85.4 73.3 249.8
02/09 13:00 5.2 90 6.2 3.7 46 54 979.2 0.2 14.8 23.1 32.6 85.7 73.7 251.3
02/09 12:50 5.1 90 6.16 3.6 41 48 979.4 0 14.7 23.1 32.5 85.4 73.3 249.8
02/09 12:40 5.2 89 6.13 3.5 43 48 979.5 0 14.6 23.0 32.4 85.0 72.8 248.2
02/09 12:30 5.3 89 6.17 3.6 41 46 979.6 0 14.7 23.1 32.5 85.3 73.2 249.7
02/09 12:20 5.3 89 6.17 3.6 39 44 979.8 0 14.7 23.1 32.5 85.4 73.3 249.8
02/09 12:10 5.4 89 6.21 3.7 37 43 980 0 14.8 23.1 32.6 85.7 73.7 251.3
02/09 12:00 5.3 89 6.17 3.6 33 39 980.1 0 14.7 23.1 32.5 85.4 73.3 249.8
02/09 11:50 5.2 89 6.13 3.5 39 43 980.3 0 14.6 23.0 32.4 85.1 72.9 248.3
02/09 11:40 5.3 88 6.1 3.5 39 44 980.5 0 14.6 23.0 32.2 84.7 72.4 246.7
02/09 11:30 5.6 87 6.15 3.6 37 44 980.6 0 14.7 23.0 32.3 84.9 72.8 248.1
02/09 11:20 5.7 87 6.2 3.7 35 43 980.8 0 14.8 23.0 32.5 85.3 73.3 250.1
02/09 11:10 5.5 87 6.11 3.5 37 41 980.9 0 14.6 23.0 32.2 84.6 72.4 246.6
02/09 11:00 5.7 88 6.27 3.9 37 41 981 0 14.9 23.2 32.8 86.1 74.3 253.3
02/09 10:50 5.4 87 6.07 3.4 37 43 981.2 0 14.5 22.9 32.1 84.3 71.9 245.1
02/09 10:40 5.6 87 6.15 3.6 35 41 981.2 0 14.7 23.0 32.3 85.0 72.8 248.2
02/09 10:30 5.5 86 6.04 3.3 33 39 981.3 0 14.4 22.9 32.0 83.9 71.5 243.5
02/09 10:20 5.5 87 6.11 3.5 32 35 981.5 0 14.6 23.0 32.2 84.7 72.4 246.7
02/09 10:10 5.5 87 6.11 3.5 30 32 981.5 0 14.6 23.0 32.2 84.7 72.4 246.7
02/09 10:00 5.5 86 6.04 3.3 32 32 981.7 0 14.4 22.9 32.0 84.0 71.5 243.6
02/09 09:50 5.4 85 5.93 3.1 32 37 981.8 0 14.2 22.7 31.6 82.9 70.2 238.8
02/09 09:40 4.9 85 5.74 2.6 32 35 981.8 0 13.8 22.5 31.0 81.4 68.1 231.7
02/09 09:30 5 87 5.92 3 28 33 981.9 0 14.2 22.8 31.7 83.2 70.4 239.6
02/09 09:20 5 87 5.92 3 26 32 982 0 14.2 22.8 31.7 83.2 70.4 239.7
02/09 09:10 5.1 86 5.89 3 26 28 982 0 14.1 22.7 31.5 82.8 69.9 238.0
02/09 09:00 5.3 85 5.9 3 24 26 981.9 0 14.1 22.7 31.5 82.7 69.9 237.8
02/09 08:50 5.2 85 5.86 2.9 20 26 981.8 10 14.1 22.7 31.4 82.4 69.4 236.3
02/09 08:40 4.9 88 5.94 3.1 24 28 981.9 10 14.2 22.9 31.8 83.6 70.7 240.9
02/09 08:30 4.9 90 6.08 3.4 24 28 982 10 14.5 23.1 32.4 85.1 72.6 247.3
02/09 08:20 4.9 90 6.08 3.4 24 30 982.1 10 14.5 23.1 32.4 85.1 72.6 247.4
02/09 08:10 4.7 90 6 3.2 26 32 982.1 10 14.4 23.0 32.2 84.4 71.7 244.3
02/09 08:00 4.6 89 5.89 2.9 28 33 982.1 10 14.1 22.9 31.8 83.4 70.4 239.5
02/09 07:50 4.6 90 5.96 3.1 28 32 982 10 14.3 23.0 32.0 84.1 71.3 242.7
02/09 07:40 4.4 91 5.95 3.1 28 32 982 10 14.3 23.0 32.1 84.2 71.3 242.9
02/09 07:30 4.3 91 5.91 3 26 30 982 10 14.2 23.0 31.9 83.9 70.9 241.3
02/09 07:20 4.2 91 5.87 2.9 26 32 982 10 14.1 22.9 31.8 83.6 70.5 239.8
02/09 07:10 4.1 91 5.83 2.8 26 32 982 10 14.0 22.9 31.7 83.2 70.0 238.3
02/09 07:00 4 91 5.79 2.7 24 28 981.9 10 14.0 22.9 31.6 82.9 69.6 236.7
02/09 06:50 3.9 91 5.75 2.6 26 30 981.8 10 13.9 22.8 31.5 82.6 69.1 235.1
02/09 06:40 3.9 91 5.75 2.6 24 30 981.8 10 13.9 22.8 31.5 82.6 69.1 235.1
02/09 06:30 3.8 91 5.71 2.5 26 30 981.8 10 13.8 22.8 31.3 82.3 68.7 233.6
02/09 06:20 3.8 91 5.71 2.5 26 30 981.9 10 13.8 22.8 31.3 82.3 68.7 233.6
02/09 06:10 3.8 91 5.71 2.5 26 30 981.8 10 13.8 22.8 31.3 82.3 68.7 233.6
02/09 06:00 3.8 90 5.65 2.3 26 30 981.6 10 13.7 22.7 31.1 81.6 67.9 230.7
02/09 05:50 3.8 90 5.65 2.3 30 37 981.6 10 13.7 22.7 31.1 81.6 67.9 230.7
02/09 05:40 3.8 90 5.65 2.3 32 37 981.6 10 13.7 22.7 31.1 81.6 67.9 230.7
02/09 05:30 3.9 89 5.63 2.3 32 39 981.5 10 13.6 22.6 31.0 81.3 67.6 229.5
02/09 05:20 3.9 88 5.56 2.1 32 37 981.3 10 13.5 22.5 30.7 80.5 66.6 226.3
02/09 05:10 4 86 5.47 1.9 32 39 981.2 10 13.3 22.3 30.3 79.5 65.4 221.8
02/09 05:00 4.2 83 5.35 1.6 41 46 981.1 10 13.0 22.1 29.7 78.0 63.6 215.8
02/09 04:50 4.2 80 5.16 1.1 43 48 981 10 12.6 21.8 29.0 76.0 61.2 207.2
02/09 04:40 4 78 4.96 0.5 43 50 980.7 10 12.1 21.5 28.3 74.1 58.8 198.7
02/09 04:30 3.8 79 4.96 0.5 41 52 980.6 10 12.2 21.6 28.3 74.3 58.9 199.2
02/09 04:20 3.9 83 5.25 1.3 39 46 980.4 10 12.8 22.0 29.4 77.2 62.5 212.0
02/09 04:10 3.9 83 5.25 1.3 41 48 980.4 10 12.8 22.0 29.4 77.2 62.5 212.0

Last Refresh: 02-Sep-2026 20:23:49

Bureau of Meteorology